Lihue, HI

7:19 PM HST on January 21, 2018 (GMT -1000)
Lihue

Weather History for PHLI - November, 2011

Change the Weather History Date:

Friday, November 11, 2011

  Actual Average Record
Temperature  
Mean Temperature 75 °F 76 °F  
Max Temperature 79 °F 81 °F 84 °F (1957)
Min Temperature 70 °F 71 °F 63 °F (1950)
Degree Days  
Heating Degree Days 0 0  
Month to date heating degree days 0 0  
Since 1 July heating degree days 0 0  
Cooling Degree Days 10 11  
Month to date cooling degree days 117 128  
Year to date cooling degree days 3709 3495  
Growing Degree Days 24 (Base 50)    
Moisture  
Dew Point 67 °F    
Average Humidity 76    
Maximum Humidity 93    
Minimum Humidity 58    
Precipitation  
Precipitation 0.16 in 0.15 in 3.03 in (1955)
Month to date precipitation 4.51 1.67  
Year to date precipitation 38.99 29.06  
Snow  
Snow 0.00 in - - ()
Month to date snowfall 0.0  
Since 1 July snowfall 0.0  
Since 1 September snowfall 0.0  
Snow Depth 0.00 in    
Sea Level Pressure  
Sea Level Pressure 30.10 in    
Wind  
Wind Speed 20 mph (ENE)    
Max Wind Speed 25 mph    
Max Gust Speed 31 mph    
Visibility 9 miles    
Events Rain    
T = Trace of Precipitation, MM = Missing Value Source: NWS Daily Summary

Daily Weather History Graph

Daily Weather History Graph

Search for Another Location

Airport or City:

Trip Planner

Search our weather history database for the weather conditions in past years. The results will help you decide how hot, cold, wet, or windy it might be!

Date:

Astronomy

Nov. 11, 2011 Rise Set
Actual Time 6:46 AM HST 5:55 PM HST
Civil Twilight 6:23 AM HST 6:19 PM HST
Nautical Twilight 5:56 AM HST 6:46 PM HST
Astronomical Twilight 5:29 AM HST 7:12 PM HST
Moon 6:44 PM HST (11/11) 7:35 AM HST (11/11)
Length of Visible Light 11h 55m
Length of Day
11h 09m
Full, 99% of the Moon is Illuminated
Nov 11
Full
Nov 18
Last Quarter
Nov 24
New
Dec 1
First Quarter
Dec 10
Full

Hourly Weather History & Observations

Time (HST) Temp. Dew Point Humidity Pressure Visibility Wind Dir Wind Speed Gust Speed Precip Events Conditions
12:49 AM 73.4 °F 69.8 °F 88% 30.12 in 9.0 mi NE 16.1 mph 23.0 mph 0.00 in Rain Light Rain
12:53 AM 73.0 °F 68.0 °F 84% 30.11 in 7.0 mi ENE 25.3 mph 31.1 mph 0.00 in Rain Light Rain
1:10 AM 69.8 °F 69.8 °F 100% 30.12 in 1.8 mi ENE 16.1 mph 31.1 mph 0.08 in Rain Heavy Rain
1:14 AM 71.6 °F 69.8 °F 94% 30.12 in 3.0 mi ENE 17.3 mph - 0.09 in Rain Light Rain
1:23 AM 71.6 °F 69.8 °F 94% 30.11 in 10.0 mi NE 16.1 mph - 0.09 in   Overcast
1:38 AM 71.6 °F 68.0 °F 88% 30.11 in 2.5 mi ENE 12.7 mph 25.3 mph 0.14 in Rain Rain
1:46 AM 71.6 °F 69.8 °F 94% 30.11 in 5.0 mi ENE 19.6 mph 25.3 mph 0.14 in Rain Light Rain
1:53 AM 72.0 °F 68.0 °F 87% 30.10 in 10.0 mi ENE 20.7 mph 26.5 mph 0.14 in   Overcast
2:09 AM 73.4 °F 66.2 °F 78% 30.10 in 10.0 mi ENE 21.9 mph - 0.01 in   Overcast
2:53 AM 72.0 °F 68.0 °F 87% 30.10 in 10.0 mi ENE 18.4 mph - 0.01 in   Overcast
3:53 AM 72.0 °F 68.0 °F 87% 30.09 in 10.0 mi NE 17.3 mph 25.3 mph 0.01 in   Overcast
4:17 AM 71.6 °F 68.0 °F 88% 30.09 in 10.0 mi ENE 23.0 mph 29.9 mph N/A   Overcast
4:53 AM 72.0 °F 66.9 °F 84% 30.09 in 10.0 mi ENE 18.4 mph - N/A   Overcast
5:53 AM 73.0 °F 66.0 °F 79% 30.10 in 10.0 mi ENE 20.7 mph - N/A   Overcast
6:53 AM 73.0 °F 66.9 °F 81% 30.11 in 10.0 mi ENE 18.4 mph - N/A   Overcast
7:53 AM 73.9 °F 66.0 °F 76% 30.12 in 10.0 mi ENE 23.0 mph - N/A   Overcast
8:53 AM 75.0 °F 66.0 °F 73% 30.14 in 10.0 mi ENE 23.0 mph 28.8 mph N/A   Overcast
9:53 AM 75.9 °F 66.0 °F 71% 30.15 in 10.0 mi ENE 20.7 mph - N/A   Overcast
10:53 AM 77.0 °F 66.0 °F 69% 30.14 in 10.0 mi ENE 20.7 mph 27.6 mph N/A   Scattered Clouds
11:53 AM 78.1 °F 66.0 °F 66% 30.11 in 10.0 mi ENE 19.6 mph - N/A   Mostly Cloudy
12:53 PM 78.1 °F 64.9 °F 64% 30.09 in 10.0 mi ENE 19.6 mph - N/A   Mostly Cloudy
1:53 PM 78.1 °F 62.1 °F 58% 30.07 in 10.0 mi NE 20.7 mph - N/A   Clear
2:53 PM 78.1 °F 62.1 °F 58% 30.06 in 10.0 mi ENE 19.6 mph 27.6 mph N/A   Partly Cloudy
3:53 PM 75.0 °F 66.0 °F 73% 30.06 in 10.0 mi NE 17.3 mph - N/A   Mostly Cloudy
4:53 PM 73.9 °F 64.9 °F 73% 30.07 in 10.0 mi NE 18.4 mph - 0.00 in   Scattered Clouds
5:53 PM 73.0 °F 64.9 °F 76% 30.08 in 10.0 mi NE 13.8 mph - 0.00 in   Scattered Clouds
6:53 PM 73.0 °F 64.9 °F 76% 30.09 in 10.0 mi ENE 17.3 mph - N/A   Scattered Clouds
7:53 PM 73.0 °F 66.0 °F 79% 30.10 in 10.0 mi NE 15.0 mph - N/A   Mostly Cloudy
8:53 PM 72.0 °F 66.9 °F 84% 30.11 in 10.0 mi NE 17.3 mph - N/A   Overcast
9:53 PM 73.0 °F 66.0 °F 79% 30.12 in 10.0 mi ENE 17.3 mph - 0.00 in   Mostly Cloudy
10:53 PM 73.0 °F 64.9 °F 76% 30.12 in 10.0 mi ENE 19.6 mph - N/A   Scattered Clouds
11:53 PM 73.9 °F 66.0 °F 76% 30.11 in 10.0 mi ENE 18.4 mph - N/A   Mostly Cloudy